When you browse on this site, cookies collect data to enhance your experience and personalize the content and advertising you see.
Visit our Privacy Policy to learn more. By continuing to use the site, you agree to this use of cookies and data.
  • In United Kingdom
  • List of Countries
  • For 7 days
  • Water Temperature
  • Satellite Maps
  • Weather Map
  • Weather Widgets
  • user-avatar
    Login

    Hourly Weather Lons-le-Saunier

    Today, 16 December, Sunday

    Time Temperature Precipitation Wind Pressure Humidity
    00:00 +2°C° 1.2 mm 3 mps 727 mmHg 89%
    01:00 +2°C° 0.4 mm 3 mps 727 mmHg 91%
    02:00 +2°C° 0.4 mm 3 mps 727 mmHg 92%
    03:00 +3°C° 0.4 mm 4 mps 727 mmHg 94%
    04:00 +3°C° 0.2 mm 3 mps 727 mmHg 95%
    05:00 +3°C° 0.2 mm 3 mps 727 mmHg 96%
    06:00 +4°C° 0.2 mm 3 mps 727 mmHg 96%
    07:00 +4°C° 0.1 mm 3 mps 727 mmHg 97%
    08:00 +5°C° 0.1 mm 2 mps 728 mmHg 97%
    09:00 +5°C° 0.1 mm 2 mps 728 mmHg 97%
    10:00 +5°C° 0.1 mm 2 mps 728 mmHg 97%
    11:00 +6°C° 0.1 mm 2 mps 728 mmHg 96%
    12:00 +7°C° 0.1 mm 1 mps 728 mmHg 96%
    13:00 +7°C° 0.1 mm 1 mps 728 mmHg 96%
    14:00 +7°C° 0.1 mm 1 mps 728 mmHg 96%
    15:00 +6°C° 0.1 mm 1 mps 727 mmHg 97%
    16:00 +5°C° 0 mm 1 mps 728 mmHg 97%
    17:00 +4°C° 0 mm 1 mps 728 mmHg 97%
    18:00 +4°C° 0 mm 1 mps 728 mmHg 97%
    19:00 +3°C° 0 mm 1 mps 728 mmHg 96%
    20:00 +3°C° 0 mm 1 mps 728 mmHg 96%
    21:00 +3°C° 0 mm 1 mps 729 mmHg 96%
    22:00 +3°C° 0 mm 1 mps 729 mmHg 95%
    23:00 +3°C° 0 mm 1 mps 729 mmHg 95%

    Tomorrow, 17 December, Monday

    Time Temperature Precipitation Wind Pressure Humidity
    00:00 +3°C° 0 mm 1 mps 729 mmHg 95%
    01:00 +2°C° 0.7 mm 2 mps 729 mmHg 96%
    02:00 +3°C° 0.7 mm 2 mps 730 mmHg 96%
    03:00 +4°C° 0.7 mm 2 mps 730 mmHg 97%
    04:00 +4°C° 1 mm 2 mps 731 mmHg 96%
    05:00 +3°C° 1 mm 3 mps 731 mmHg 96%
    06:00 +3°C° 1 mm 3 mps 732 mmHg 96%
    07:00 +3°C° 0.2 mm 3 mps 733 mmHg 96%
    08:00 +3°C° 0.2 mm 3 mps 734 mmHg 95%
    09:00 +3°C° 0.2 mm 3 mps 734 mmHg 95%
    10:00 +5°C° 0.1 mm 2 mps 735 mmHg 94%
    11:00 +5°C° 0.1 mm 2 mps 735 mmHg 92%
    12:00 +5°C° 0.1 mm 2 mps 736 mmHg 91%
    13:00 +5°C° 0 mm 2 mps 736 mmHg 92%
    14:00 +5°C° 0 mm 2 mps 736 mmHg 93%
    15:00 +6°C° 0 mm 1 mps 737 mmHg 94%
    16:00 +5°C° 0 mm 1 mps 737 mmHg 94%
    17:00 +4°C° 0 mm 1 mps 738 mmHg 94%
    18:00 +3°C° 0 mm 1 mps 738 mmHg 94%
    19:00 +3°C° 0 mm 1 mps 738 mmHg 94%
    20:00 +3°C° 0 mm 1 mps 738 mmHg 94%
    21:00 +2°C° 0 mm 1 mps 739 mmHg 94%
    22:00 +2°C° 0 mm 1 mps 738 mmHg 93%
    23:00 +2°C° 0 mm 1 mps 738 mmHg 93%

    Day after tomorrow, 18 December, Tuesday

    Time Temperature Precipitation Wind Pressure Humidity
    00:00 +1°C° 0 mm 1 mps 738 mmHg 93%
    01:00 +1°C° 0 mm 1 mps 738 mmHg 92%
    02:00 +1°C° 0 mm 1 mps 737 mmHg 91%
    03:00 +1°C° 0 mm 1 mps 737 mmHg 91%
    04:00 +1°C° 0 mm 1 mps 737 mmHg 90%
    05:00 +1°C° 0 mm 1 mps 736 mmHg 90%
    06:00 +1°C° 0 mm 1 mps 736 mmHg 89%
    07:00 +1°C° 0 mm 1 mps 736 mmHg 87%
    08:00 +2°C° 0 mm 1 mps 736 mmHg 84%
    09:00 +3°C° 0 mm 1 mps 735 mmHg 82%
    10:00 +5°C° 0 mm 1 mps 735 mmHg 78%
    11:00 +6°C° 0 mm 1 mps 734 mmHg 74%
    12:00 +7°C° 0 mm 2 mps 733 mmHg 70%
    13:00 +7°C° 0 mm 2 mps 733 mmHg 71%
    14:00 +6°C° 0 mm 2 mps 732 mmHg 73%
    15:00 +6°C° 0 mm 2 mps 732 mmHg 74%
    16:00 +5°C° 0 mm 2 mps 732 mmHg 74%
    17:00 +5°C° 0 mm 2 mps 732 mmHg 75%
    18:00 +4°C° 0 mm 3 mps 732 mmHg 75%
    19:00 +4°C° 0 mm 3 mps 732 mmHg 76%
    20:00 +4°C° 0 mm 3 mps 732 mmHg 76%
    21:00 +4°C° 0 mm 3 mps 732 mmHg 76%
    22:00 +4°C° 0 mm 3 mps 732 mmHg 77%
    23:00 +4°C° 0 mm 3 mps 732 mmHg 77%

    19 December, Wednesday

    Time Temperature Precipitation Wind Pressure Humidity
    00:00 +4°C° 0 mm 3 mps 731 mmHg 77%
    01:00 +4°C° 0.1 mm 3 mps 731 mmHg 79%
    02:00 +5°C° 0.1 mm 3 mps 731 mmHg 80%
    03:00 +5°C° 0.1 mm 3 mps 731 mmHg 82%
    04:00 +6°C° 0.2 mm 2 mps 731 mmHg 83%
    05:00 +5°C° 0.2 mm 2 mps 731 mmHg 84%
    06:00 +5°C° 0.2 mm 2 mps 731 mmHg 86%
    07:00 +6°C° 0.6 mm 2 mps 731 mmHg 87%
    08:00 +6°C° 0.6 mm 2 mps 731 mmHg 89%
    09:00 +6°C° 0.6 mm 2 mps 731 mmHg 90%
    10:00 +7°C° 1.2 mm 1 mps 730 mmHg 92%
    11:00 +7°C° 1.2 mm 1 mps 730 mmHg 93%
    12:00 +7°C° 1.2 mm 1 mps 730 mmHg 94%
    13:00 +7°C° 2.2 mm 1 mps 730 mmHg 95%
    14:00 +6°C° 2.2 mm 1 mps 730 mmHg 96%
    15:00 +6°C° 2.2 mm 1 mps 730 mmHg 97%
    16:00 +6°C° 0.8 mm 1 mps 730 mmHg 97%
    17:00 +6°C° 0.8 mm 1 mps 730 mmHg 97%
    18:00 +5°C° 0.8 mm 1 mps 730 mmHg 97%
    19:00 +5°C° 0.2 mm 1 mps 731 mmHg 97%
    20:00 +5°C° 0.2 mm 1 mps 731 mmHg 97%
    21:00 +5°C° 0.2 mm 1 mps 731 mmHg 97%
    22:00 +5°C° 0.2 mm 1 mps 731 mmHg 97%
    23:00 +5°C° 0.2 mm 1 mps 731 mmHg 97%

    20 December, Thursday

    Time Temperature Precipitation Wind Pressure Humidity
    00:00 +5°C° 0.2 mm 1 mps 731 mmHg 97%
    01:00 +5°C° 0.3 mm 1 mps 731 mmHg 97%
    02:00 +5°C° 0.3 mm 1 mps 731 mmHg 97%
    03:00 +5°C° 0.3 mm 1 mps 732 mmHg 97%
    04:00 +5°C° 0.5 mm 1 mps 732 mmHg 97%
    05:00 +5°C° 0.5 mm 1 mps 732 mmHg 97%
    06:00 +4°C° 0.5 mm 1 mps 732 mmHg 97%
    07:00 +5°C° 0.1 mm 1 mps 733 mmHg 97%
    08:00 +5°C° 0.1 mm 1 mps 734 mmHg 96%
    09:00 +5°C° 0.1 mm 1 mps 734 mmHg 96%
    10:00 +6°C° 0.1 mm 1 mps 734 mmHg 93%
    11:00 +6°C° 0.1 mm 1 mps 734 mmHg 91%
    12:00 +6°C° 0.1 mm 2 mps 735 mmHg 89%
    13:00 +6°C° 0 mm 1 mps 735 mmHg 90%
    14:00 +6°C° 0 mm 1 mps 735 mmHg 90%
    15:00 +6°C° 0 mm 1 mps 735 mmHg 91%
    16:00 +5°C° 0 mm 1 mps 736 mmHg 92%
    17:00 +4°C° 0 mm 1 mps 736 mmHg 94%
    18:00 +4°C° 0 mm 1 mps 736 mmHg 95%
    19:00 +3°C° 0 mm 1 mps 737 mmHg 94%
    20:00 +3°C° 0 mm 1 mps 737 mmHg 94%
    21:00 +3°C° 0 mm 1 mps 738 mmHg 94%
    22:00 +3°C° 0 mm 1 mps 738 mmHg 94%
    23:00 +2°C° 0 mm 1 mps 738 mmHg 94%

    21 December, Friday

    Time Temperature Precipitation Wind Pressure Humidity
    00:00 +2°C° 0 mm 1 mps 738 mmHg 94%
    01:00 +2°C° 0 mm 1 mps 738 mmHg 95%
    02:00 +2°C° 0 mm 1 mps 738 mmHg 95%
    03:00 +2°C° 0 mm 1 mps 738 mmHg 95%
    04:00 +1°C° 0 mm 2 mps 737 mmHg 94%
    05:00 +1°C° 0 mm 2 mps 737 mmHg 93%
    06:00 +2°C° 0 mm 2 mps 737 mmHg 92%
    07:00 +2°C° 0 mm 2 mps 737 mmHg 89%
    08:00 +3°C° 0 mm 2 mps 737 mmHg 87%
    09:00 +4°C° 0 mm 2 mps 737 mmHg 84%
    10:00 +4°C° 0.1 mm 3 mps 737 mmHg 83%
    11:00 +4°C° 0.1 mm 3 mps 736 mmHg 82%
    12:00 +5°C° 0.1 mm 3 mps 736 mmHg 80%
    13:00 +5°C° 0.2 mm 3 mps 735 mmHg 81%
    14:00 +5°C° 0.2 mm 3 mps 735 mmHg 81%
    15:00 +5°C° 0.2 mm 3 mps 735 mmHg 82%
    16:00 +5°C° 0.9 mm 3 mps 735 mmHg 84%
    17:00 +5°C° 0.9 mm 4 mps 735 mmHg 87%
    18:00 +5°C° 0.9 mm 4 mps 736 mmHg 89%
    19:00 +5°C° 0.5 mm 4 mps 736 mmHg 90%
    20:00 +5°C° 0.5 mm 4 mps 736 mmHg 90%
    21:00 +6°C° 0.5 mm 4 mps 736 mmHg 90%
    22:00 +6°C° 0.5 mm 4 mps 735 mmHg 90%
    23:00 +6°C° 0.5 mm 4 mps 735 mmHg 91%
    Show more